Location: Buckland
(65.9785°N, 161.1281°W)
Time: 23:14:05
(UTC+00:00)

Transit 4A - Pass Details

Date: 27 November 2020
Orbit: 864 x 980 km, 66.8° (Epoch: 20 January)

Event Time Altitude Azimuth Distance (km) Brightness Sun altitude
Rises 02:37:23 0° 301° (WNW) 3,695 11.4 -8.5°
Reaches altitude 10° 02:40:01 10° 297° (WNW) 2,744 10.8 -8.7°
Maximum altitude 02:46:13 52° 223° (SW) 1,199 9.0 -9.3°
Drops below altitude 10° 02:52:19 10° 150° (SSE) 2,696 10.3 -9.8°
Sets 02:54:53 0° 145° (SE) 3,625 10.9 -10.0°
